DW3929 Weather Reports


Display with metric or nautical units.
time (UTC)temp
F
wind
direction
speed
MPH
gust
MPH
rain 1hr
in
rain 24hr
in
rain mn
in
humidity
%
barometer
mb
20260507085319 63 360 4.0 11.0 0.00 0.00 0.00 86 1014.4
20260507084837 63 360 3.0 8.0 0.00 0.00 0.00 86 1014.1
20260507084316 63 360 2.0 8.0 0.00 0.00 0.00 86 1014.4
20260507083816 63 360 2.0 9.0 0.00 0.00 0.00 86 1014.3
20260507083316 63 360 3.0 12.0 0.00 0.00 0.00 86 1014.3
20260507082848 63 360 4.0 12.0 0.00 0.00 0.00 86 1014.2
20260507082347 63 360 5.0 12.0 0.00 0.00 0.00 86 1014.2
20260507081826 63 360 3.0 11.0 0.00 0.00 0.00 85 1014.1
20260507081346 63 360 3.0 11.0 0.00 0.00 0.00 85 1014.1
20260507080825 63 360 1.0 11.0 0.00 0.00 0.00 85 1014.4
20260507080324 63 360 3.0 11.0 0.00 0.00 0.00 85 1014.2
20260507075846 63 360 3.0 10.0 0.00 0.00 0.00 85 1014.1
20260507075325 63 360 3.0 9.0 0.00 0.00 0.00 85 1014.4
20260507074824 64 360 3.0 9.0 0.00 0.00 0.00 86 1014.3
20260507074322 64 360 3.0 8.0 0.00 0.00 0.00 86 1014.2
20260507073822 64 360 3.0 6.0 0.00 0.00 0.00 86 1014.4
20260507073341 64 360 3.0 9.0 0.00 0.00 0.00 86 1014.5
20260507072819 64 360 3.0 9.0 0.00 0.00 0.00 86 1014.6
20260507072332 64 360 2.0 8.0 0.00 0.00 0.00 86 1014.6
20260507071832 64 360 2.0 6.0 0.00 0.00 0.00 86 1014.3
20260507071330 64 360 2.0 6.0 0.00 0.00 0.00 86 1014.3
20260507070831 64 360 2.0 9.0 0.00 0.00 0.00 86 1014.3
20260507070331 64 360 4.0 11.0 0.00 0.00 0.00 86 1014.2
20260507065831 64 360 3.0 11.0 0.00 0.00 0.00 86 1014.2
20260507065330 64 360 4.0 9.0 0.00 0.00 0.00 86 1014.4
20260507064830 64 360 3.0 9.0 0.00 0.00 0.00 86 1014.5
20260507064330 64 360 1.0 9.0 0.00 0.00 0.00 86 1014.3
20260507063830 64 360 3.0 9.0 0.00 0.00 0.00 86 1014.7
20260507063329 64 360 3.0 11.0 0.00 0.00 0.00 86 1014.6
20260507062828 64 360 3.0 11.0 0.00 0.00 0.00 86 1014.3
20260507062329 64 360 3.0 10.0 0.00 0.00 0.00 85 1014.2
20260507061830 64 360 3.0 10.0 0.00 0.00 0.00 85 1014.5
20260507061329 64 360 5.0 10.0 0.00 0.00 0.00 85 1013.7
20260507060828 64 360 1.0 12.0 0.00 0.00 0.00 85 1014.0
20260507060329 64 360 5.0 12.0 0.00 0.00 0.00 85 1014.2
20260507055829 64 360 5.0 12.0 0.00 0.00 0.00 85 1014.2
20260507055329 64 360 4.0 11.0 0.00 0.00 0.00 85 1014.0
20260507054850 64 360 3.0 14.0 0.00 0.00 0.00 85 1014.1
20260507054349 64 360 4.0 14.0 0.00 0.00 0.00 85 1014.2
20260507053336 64 360 3.0 11.0 0.00 0.00 0.00 85 1014.2
20260507052815 64 360 2.0 11.0 0.00 0.00 0.00 86 1014.1
20260507052314 64 360 3.0 10.0 0.00 0.00 0.00 86 1014.0
20260507051847 64 360 3.0 10.0 0.00 0.00 0.00 86 1014.1
20260507051324 64 360 4.0 11.0 0.00 0.00 0.00 85 1014.4
20260507050825 64 360 5.0 11.0 0.00 0.00 0.00 85 1014.5
20260507050324 64 360 3.0 13.0 0.00 0.00 0.00 86 1014.2
20260507045823 64 360 5.0 13.0 0.00 0.00 0.00 85 1014.3
20260507045324 64 360 4.0 13.0 0.00 0.00 0.00 85 1014.2
20260507044823 64 360 6.0 13.0 0.00 0.00 0.00 85 1014.1
20260507044322 64 360 4.0 14.0 0.00 0.00 0.00 85 1013.9
20260507043822 64 360 5.0 14.0 0.00 0.00 0.00 85 1013.9
20260507043324 64 360 4.0 10.0 0.00 0.00 0.00 85 1013.9
20260507042824 64 360 4.0 11.0 0.00 0.00 0.00 85 1014.0
20260507042344 64 360 4.0 16.0 0.00 0.00 0.00 85 1014.0
20260507041823 64 360 4.0 16.0 0.00 0.00 0.00 85 1014.1
20260507041319 64 360 6.0 13.0 0.00 0.00 0.00 86 1014.0
20260507040818 64 360 4.0 11.0 0.00 0.00 0.00 86 1013.8
20260507040312 64 360 5.0 11.0 0.00 0.00 0.00 86 1013.8
20260507035831 64 360 4.0 11.0 0.00 0.00 0.00 86 1013.7
20260507035330 64 360 4.0 10.0 0.00 0.00 0.00 86 1013.9
20260507034830 64 360 4.0 10.0 0.00 0.00 0.00 86 1014.0
20260507034346 64 360 5.0 9.0 0.00 0.00 0.00 86 1013.8
20260507033825 64 360 3.0 11.0 0.00 0.00 0.00 86 1013.8
20260507033319 64 360 5.0 11.0 0.00 0.00 0.00 86 1013.9
20260507032816 64 360 4.0 10.0 0.00 0.00 0.00 86 1013.4
20260507032316 64 360 3.0 10.0 0.00 0.00 0.00 86 1013.6
20260507031836 64 360 6.0 10.0 0.00 0.00 0.00 86 1013.4
20260507031315 64 360 4.0 8.0 0.00 0.00 0.00 86 1013.5
20260507030815 64 360 2.0 12.0 0.00 0.00 0.00 86 1013.7
20260507030335 64 360 2.0 10.0 0.00 0.00 0.00 86 1013.3
20260507025326 64 360 6.0 9.0 0.00 0.00 0.00 86 1013.6
20260507024826 64 360 2.0 9.0 0.00 0.00 0.00 86 1013.4
20260507024326 64 360 3.0 9.0 0.00 0.00 0.00 86 1012.9
20260507023826 64 360 2.0 9.0 0.00 0.00 0.00 86 1013.0
20260507023327 64 360 2.0 10.0 0.00 0.00 0.00 86 1012.9
20260507022826 64 360 3.0 10.0 0.00 0.00 0.00 86 1012.5
20260507022325 64 360 2.0 12.0 0.00 0.00 0.00 86 1012.9
20260507021826 64 360 3.0 12.0 0.00 0.00 0.00 85 1012.6
20260507021328 65 360 3.0 10.0 0.00 0.00 0.00 85 1012.5
20260507020827 65 360 4.0 10.0 0.00 0.00 0.00 85 1012.4
20260507020327 65 360 3.0 10.0 0.00 0.00 0.00 85 1012.6
20260507015828 65 360 3.0 10.0 0.00 0.00 0.00 85 1012.6
20260507015328 65 360 3.0 9.0 0.00 0.00 0.00 85 1013.0
20260507014828 65 360 3.0 9.0 0.00 0.00 0.00 85 1012.5
20260507014327 65 360 3.0 10.0 0.00 0.00 0.00 85 1012.6
20260507013846 65 360 2.0 10.0 0.00 0.00 0.00 85 1012.2
20260507013344 65 360 3.0 9.0 0.00 0.00 0.00 85 1012.1
20260507012821 65 360 3.0 8.0 0.00 0.00 0.00 85 1012.1
20260507012323 65 360 4.0 10.0 0.00 0.00 0.00 85 1012.1
20260507011820 65 360 3.0 10.0 0.00 0.00 0.00 84 1012.2
20260507011314 65 360 4.0 9.0 0.00 0.00 0.00 85 1012.0
20260507010828 65 360 4.0 10.0 0.00 0.00 0.00 84 1012.1
20260507010325 65 360 3.0 10.0 0.00 0.00 0.00 84 1011.8
20260507005845 65 360 3.0 13.0 0.00 0.00 0.00 84 1011.9
20260507005323 65 360 5.0 13.0 0.00 0.00 0.00 84 1011.8
20260507004822 65 360 3.0 12.0 0.00 0.00 0.00 84 1011.4
20260507004317 65 360 4.0 11.0 0.00 0.00 0.00 84 1011.4
20260507003816 65 360 5.0 13.0 0.00 0.00 0.00 83 1011.4
20260507003313 65 360 4.0 13.0 0.00 0.00 0.00 83 1011.5
20260507002812 66 360 4.0 11.0 0.00 0.00 0.00 83 1011.2
20260507002331 66 360 3.0 11.0 0.00 0.00 0.00 84 1011.3
20260507001830 66 360 3.0 12.0 0.00 0.00 0.00 83 1011.2
20260507001328 66 360 5.0 14.0 0.00 0.00 0.00 83 1011.1
20260507000828 66 360 5.0 14.0 0.00 0.00 0.00 82 1011.0
20260507000347 66 360 6.0 14.0 0.00 0.00 0.00 82 1011.1
20260506235825 66 360 6.0 14.0 0.00 0.00 0.00 81 1011.0
20260506235318 67 360 5.0 12.0 0.00 0.00 0.00 82 1011.1
20260506234816 67 360 3.0 13.0 0.00 0.00 0.00 82 1011.0
20260506234315 67 360 6.0 15.0 0.00 0.00 0.00 81 1010.9
20260506233814 67 360 6.0 15.0 0.00 0.00 0.00 81 1010.9
20260506233314 67 360 5.0 13.0 0.00 0.00 0.00 81 1010.9
20260506232832 67 360 5.0 13.0 0.00 0.00 0.00 81 1010.9
20260506232331 68 360 4.0 14.0 0.00 0.00 0.00 81 1010.9
20260506231830 68 360 4.0 18.0 0.00 0.00 0.00 79 1010.9
20260506231329 68 360 5.0 18.0 0.00 0.00 0.00 80 1010.8
20260506230850 68 360 5.0 14.0 0.00 0.00 0.00 80 1010.7
20260506230321 69 360 4.0 19.0 0.00 0.00 0.00 80 1010.6
20260506225821 69 360 5.0 19.0 0.00 0.00 0.00 80 1010.6
20260506225340 69 360 6.0 21.0 0.00 0.00 0.00 79 1010.5
20260506224838 70 360 7.0 21.0 0.00 0.00 0.00 79 1010.5
20260506224315 70 360 8.0 21.0 0.00 0.00 0.00 78 1010.4
20260506223813 70 360 4.0 13.0 0.00 0.00 0.00 79 1010.2
20260506223326 70 360 5.0 15.0 0.00 0.00 0.00 80 1010.3
20260506222826 71 360 6.0 14.0 0.00 0.00 0.00 78 1010.3
20260506222325 71 360 5.0 19.0 0.00 0.00 0.00 79 1010.4
20260506221824 72 360 7.0 19.0 0.00 0.00 0.00 78 1010.3
20260506221323 72 360 8.0 15.0 0.00 0.00 0.00 77 1010.3
20260506220821 73 360 8.0 15.0 0.00 0.00 0.00 78 1010.1
20260506220321 73 360 5.0 22.0 0.00 0.00 0.00 76 1010.0
20260506215821 74 360 6.0 22.0 0.00 0.00 0.00 78 1009.9
20260506215342 75 360 7.0 19.0 0.00 0.00 0.00 76 1009.8
20260506214819 75 360 5.0 17.0 0.00 0.00 0.00 76 1009.9
20260506214318 76 360 7.0 17.0 0.00 0.00 0.00 76 1009.8
20260506213818 76 360 7.0 15.0 0.00 0.00 0.00 76 1009.9
20260506213317 76 360 6.0 17.0 0.00 0.00 0.00 76 1009.7
20260506212816 76 360 7.0 17.0 0.00 0.00 0.00 76 1009.5
20260506212314 76 360 7.0 18.0 0.00 0.00 0.00 77 1009.6
20260506211851 76 360 7.0 16.0 0.00 0.00 0.00 79 1009.8
20260506211329 76 360 4.0 17.0 0.00 0.00 0.00 78 1009.8
20260506210828 76 360 4.0 17.0 0.00 0.00 0.00 78 1010.0
20260506210347 77 360 9.0 19.0 0.00 0.00 0.00 78 1010.0
20260506205824 78 360 4.0 12.0 0.00 0.00 0.00 78 1010.0
20260506205324 79 360 5.0 14.0 0.00 0.00 0.00 79 1009.9
20260506204824 80 360 5.0 14.0 0.00 0.00 0.00 77 1009.8
20260506204323 81 360 4.0 12.0 0.00 0.00 0.00 77 1009.7
20260506203824 81 360 4.0 13.0 0.00 0.00 0.00 78 1009.7
20260506203325 81 360 6.0 13.0 0.00 0.00 0.00 77 1009.8
20260506202846 81 360 4.0 12.0 0.00 0.00 0.00 78 1009.6
20260506202319 81 360 5.0 12.0 0.00 0.00 0.00 78 1009.6
20260506201818 81 360 4.0 11.0 0.00 0.00 0.00 79 1009.6
20260506201317 81 360 4.0 14.0 0.00 0.00 0.00 78 1009.7
20260506200815 81 360 4.0 14.0 0.00 0.00 0.00 79 1009.5
20260506200316 81 360 3.0 10.0 0.00 0.00 0.00 78 1009.6
20260506195817 81 360 4.0 10.0 0.00 0.00 0.00 79 1009.6
20260506195315 80 360 3.0 10.0 0.00 0.00 0.00 79 1009.5
20260506194816 80 360 5.0 10.0 0.00 0.00 0.00 77 1009.5
20260506194315 81 360 3.0 12.0 0.00 0.00 0.00 78 1009.7
20260506193815 81 360 6.0 12.0 0.00 0.00 0.00 78 1009.7
20260506193315 81 360 4.0 9.0 0.00 0.00 0.00 78 1009.6
20260506192813 80 360 3.0 9.0 0.00 0.00 0.00 78 1009.6
20260506192312 80 360 4.0 12.0 0.00 0.00 0.00 77 1009.6
20260506191830 80 360 3.0 12.0 0.00 0.00 0.00 77 1009.6
20260506191330 81 360 3.0 11.0 0.00 0.00 0.00 78 1009.6
20260506190849 80 360 5.0 11.0 0.00 0.00 0.00 78 1009.8
20260506190327 80 360 4.0 9.0 0.00 0.00 0.00 78 1009.8
20260506185814 79 360 3.0 8.0 0.00 0.00 0.00 78 1009.8
20260506185330 79 360 2.0 8.0 0.00 0.00 0.00 79 1009.9
20260506184831 79 360 4.0 9.0 0.00 0.00 0.00 79 1009.7
20260506184329 78 360 4.0 9.0 0.00 0.00 0.00 79 1009.7
20260506183827 78 360 2.0 11.0 0.00 0.00 0.00 81 1009.9
20260506183325 77 360 4.0 11.0 0.00 0.00 0.00 81 1009.9
20260506182842 77 360 3.0 9.0 0.00 0.00 0.00 82 1010.0
20260506182315 76 360 4.0 8.0 0.00 0.00 0.00 84 1009.9
20260506181816 75 360 1.0 9.0 0.00 0.00 0.00 84 1009.9
20260506181328 75 360 3.0 10.0 0.00 0.00 0.00 83 1009.9
20260506180828 75 360 5.0 11.0 0.00 0.00 0.00 83 1009.9
20260506180326 74 360 4.0 11.0 0.00 0.00 0.00 84 1009.9
20260506175825 73 360 3.0 10.0 0.00 0.00 0.00 88 1010.1
20260506175322 71 360 5.0 10.0 0.00 0.00 0.00 90 1010.1
20260506174821 70 360 4.0 11.0 0.00 0.00 0.00 90 1010.1
20260506174320 69 360 3.0 8.0 0.00 0.00 0.00 91 1010.3
20260506173820 69 360 1.0 11.0 0.00 0.00 0.00 91 1010.5
20260506173318 69 360 3.0 11.0 0.00 0.00 0.00 90 1010.8
20260506172817 69 360 4.0 13.0 0.00 0.00 0.00 88 1010.8
20260506172317 70 360 4.0 12.0 0.00 0.00 0.00 86 1010.9
20260506171814 71 360 5.0 14.0 0.00 0.00 0.00 85 1011.1
20260506171334 72 360 6.0 14.0 0.00 0.00 0.00 84 1011.1
20260506170831 74 360 7.0 13.0 0.00 0.00 0.00 83 1011.0
20260506170330 76 360 7.0 21.0 0.00 0.00 0.00 80 1010.9
20260506165829 79 360 11.0 21.0 0.00 0.00 0.00 77 1010.9
20260506165318 82 360 3.0 10.0 0.00 0.00 0.00 86 1010.6
20260506164817 82 360 4.0 10.0 0.00 0.00 0.00 88 1010.6
20260506164332 81 360 3.0 6.0 0.00 0.00 0.00 89 1010.5
20260506163832 81 360 2.0 6.0 0.00 0.00 0.00 90 1010.7
20260506163330 80 360 2.0 5.0 0.00 0.00 0.00 90 1010.7
20260506162830 80 360 2.0 6.0 0.00 0.00 0.00 90 1010.8
20260506162329 80 360 2.0 8.0 0.00 0.00 0.00 91 1010.8
20260506161825 80 360 3.0 8.0 0.00 0.00 0.00 90 1010.8
20260506161321 80 360 3.0 5.0 0.00 0.00 0.00 92 1011.0
20260506160819 79 360 1.0 5.0 0.00 0.00 0.00 91 1011.0
20260506160317 79 360 3.0 5.0 0.00 0.00 0.00 91 1010.9
20260506155816 79 360 1.0 5.0 0.00 0.00 0.00 92 1010.8
20260506155314 79 360 2.0 5.0 0.00 0.00 0.00 92 1010.7
20260506154815 79 360 3.0 5.0 0.00 0.00 0.00 92 1010.5
20260506154314 79 360 2.0 4.0 0.00 0.00 0.00 92 1010.4
20260506153813 79 360 1.0 4.0 0.00 0.00 0.00 92 1010.2
20260506153330 79 360 2.0 4.0 0.00 0.00 0.00 92 1010.0
20260506152829 79 360 0.0 3.0 0.00 0.00 0.00 92 1009.8
20260506152326 79 360 1.0 3.0 0.00 0.00 0.00 92 1009.6
20260506151825 79 360 1.0 3.0 0.00 0.00 0.00 92 1009.6
20260506151324 79 360 1.0 3.0 0.00 0.00 0.00 92 1009.5
20260506150825 79 360 1.0 3.0 0.00 0.00 0.00 92 1009.5
20260506150318 79 360 1.0 4.0 0.00 0.00 0.00 93 1009.4
20260506145817 78 360 1.0 3.0 0.00 0.00 0.00 93 1009.4
20260506145314 78 360 1.0 4.0 0.00 0.00 0.00 93 1009.2
20260506144813 78 360 1.0 4.0 0.00 0.00 0.00 93 1009.4
20260506144313 78 360 2.0 4.0 0.00 0.00 0.00 94 1009.3
20260506143812 78 360 0.0 2.0 0.00 0.00 0.00 94 1009.4
20260506143325 78 360 1.0 2.0 0.00 0.00 0.00 94 1009.5
20260506142825 78 360 1.0 3.0 0.00 0.00 0.00 94 1009.5
20260506142320 78 360 0.0 3.0 0.00 0.00 0.00 93 1009.5
20260506141818 78 360 1.0 3.0 0.00 0.00 0.00 93 1009.3
20260506141336 78 360 1.0 3.0 0.00 0.00 0.00 94 1009.1
20260506140814 78 360 0.0 2.0 0.00 0.00 0.00 94 1009.0
20260506140312 78 360 1.0 2.0 0.00 0.00 0.00 94 1008.8
20260506135813 78 360 0.0 3.0 0.00 0.00 0.00 94 1008.7
20260506135351 77 360 1.0 3.0 0.00 0.00 0.00 94 1008.5
20260506134829 77 360 0.0 5.0 0.00 0.00 0.00 94 1008.4
20260506134323 77 360 1.0 5.0 0.00 0.00 0.00 95 1008.4
20260506133820 77 360 1.0 4.0 0.00 0.00 0.00 95 1008.4
20260506133341 77 360 2.0 4.0 0.00 0.00 0.00 95 1008.4
20260506132817 77 360 2.0 4.0 0.00 0.00 0.00 96 1008.4
20260506132336 77 360 1.0 2.0 0.00 0.00 0.00 96 1008.4
20260506131815 76 360 1.0 4.0 0.00 0.00 0.00 96 1008.3
20260506131315 76 360 2.0 4.0 0.00 0.00 0.00 96 1008.4
20260506130814 76 360 2.0 3.0 0.00 0.00 0.00 97 1008.3
20260506130313 76 360 0.0 2.0 0.00 0.00 0.00 97 1008.3
20260506125812 76 360 0.0 2.0 0.00 0.00 0.00 97 1008.4
20260506125312 76 360 1.0 2.0 0.00 0.00 0.00 97 1008.5
20260506124850 76 360 0.0 2.0 0.00 0.00 0.00 97 1008.6
20260506124328 76 360 0.0 1.0 0.00 0.00 0.00 96 1008.7
20260506123828 76 360 0.0 1.0 0.00 0.00 0.00 96 1008.6
20260506123328 76 360 0.0 1.0 0.00 0.00 0.00 96 1008.6
20260506122832 76 360 0.0 2.0 0.00 0.00 0.00 96 1008.5
20260506122330 76 360 1.0 2.0 0.00 0.00 0.00 96 1008.4
20260506121829 76 360 0.0 2.0 0.00 0.00 0.00 96 1008.4
20260506121328 75 360 0.0 2.0 0.00 0.00 0.00 96 1008.3
20260506120829 76 360 0.0 2.0 0.00 0.00 0.00 96 1008.3
20260506120320 76 360 0.0 2.0 0.00 0.00 0.00 96 1008.3
20260506115819 76 360 1.0 2.0 0.00 0.00 0.00 96 1008.3
20260506115317 76 360 1.0 5.0 0.00 0.00 0.00 96 1008.2
20260506114818 76 360 0.0 5.0 0.00 0.00 0.00 96 1008.1
20260506114312 76 360 0.0 2.0 0.00 0.00 0.00 96 1008.1
20260506113827 76 360 0.0 2.0 0.00 0.00 0.00 96 1008.1
20260506113327 76 360 0.0 3.0 0.00 0.00 0.00 96 1008.2
20260506112847 76 360 1.0 3.0 0.00 0.00 0.00 96 1008.2
20260506112327 76 360 1.0 4.0 0.00 0.00 0.00 96 1008.1
20260506111826 76 360 2.0 5.0 0.00 0.00 0.00 96 1007.9
20260506111324 76 360 3.0 5.0 0.00 0.00 0.00 96 1007.9
20260506110824 76 360 3.0 5.0 0.00 0.00 0.00 96 1007.9
20260506110323 76 360 2.0 6.0 0.00 0.00 0.00 96 1007.9
20260506105823 76 360 1.0 6.0 0.00 0.00 0.00 96 1007.8
20260506105343 76 360 3.0 6.0 0.00 0.00 0.00 96 1007.7
20260506104820 76 360 2.0 6.0 0.00 0.00 0.00 95 1007.7
20260506104313 76 360 2.0 8.0 0.00 0.00 0.00 95 1007.8
20260506103834 76 360 4.0 8.0 0.00 0.00 0.00 95 1007.7
20260506103313 76 360 2.0 9.0 0.00 0.00 0.00 95 1007.6
20260506102812 76 360 5.0 9.0 0.00 0.00 0.00 95 1007.7
20260506102312 76 360 6.0 9.0 0.00 0.00 0.00 95 1007.6
20260506101850 76 360 4.0 9.0 0.00 0.00 0.00 95 1007.7
20260506101327 76 360 5.0 9.0 0.00 0.00 0.00 95 1007.6
20260506100828 76 360 4.0 9.0 0.00 0.00 0.00 95 1007.6
20260506100324 76 360 4.0 11.0 0.00 0.00 0.00 95 1007.6
20260506095823 76 360 4.0 11.0 0.00 0.00 0.00 95 1007.4
20260506095324 76 360 5.0 11.0 0.00 0.00 0.00 95 1007.4
20260506094823 76 360 5.0 11.0 0.00 0.00 0.00 95 1007.2
20260506094336 76 360 3.0 10.0 0.00 0.00 0.00 95 1007.1
20260506093814 76 360 5.0 10.0 0.00 0.00 0.00 95 1007.1
20260506093314 76 360 2.0 12.0 0.00 0.00 0.00 95 1007.1
20260506092813 76 360 5.0 14.0 0.00 0.00 0.00 95 1007.0
20260506092332 76 360 5.0 13.0 0.00 0.00 0.00 95 1007.1
20260506091830 76 360 6.0 13.0 0.00 0.00 0.00 95 1007.0
20260506091332 76 360 6.0 12.0 0.00 0.00 0.00 95 1006.9
20260506090851 76 360 6.0 12.0 0.00 0.00 0.00 95 1007.0
20260506090328 76 360 4.0 10.0 0.00 0.00 0.00 95 1007.1
20260506085828 76 360 7.0 10.0 0.00 0.00 0.00 95 1007.2